Regional Weather Roundup
Issued by NWS Raleigh/Durham, NC

Home | Current Version | Previous Version | Text Only | Print | Product List | Glossary On
Versions: 1 2 3 4 5 6 7 8 9 10 11 12 13 14 15 16 17 18 19 20 21 22 23 24 25 26 27 28
000
ASUS42 KRAH 270710
RWRRAH
NORTH CAROLINA WEATHER ROUNDUP
NATIONAL WEATHER SERVICE RALEIGH NC
300 AM EDT THU JUL 27 2017

NOTE: "FAIR" INDICATES FEW OR NO CLOUDS BELOW 12,000 FEET WITH NO
SIGNIFICANT WEATHER AND/OR OBSTRUCTIONS TO VISIBILITY.

NCZ001-053-055-056-065-067-270800-
WESTERN NORTH CAROLINA

CITY           SKY/WX    TMP DP  RH WIND       PRES   REMARKS
ASHEVILLE      CLOUDY    72  71  97 SE5       30.15F
JEFFERSON      MOCLDY    65  65  98 CALM      30.18F FOG
MORGANTON      CLOUDY    71  71 100 CALM      30.15F FOG
HICKORY        MOCLDY    73  72  96 CALM      30.09F
RUTHERFORDTON  PTCLDY    71  71 100 CALM      30.11F FOG
MOUNT AIRY     MOCLDY    73  68  84 CALM      30.11F
BOONE          PTCLDY    66  66  98 CALM      30.19F FOG
$$

NCZ021-022-025-041-071-084-088-270800-
CENTRAL NORTH CAROLINA

CITY           SKY/WX    TMP DP  RH WIND       PRES   REMARKS
CHARLOTTE      PTCLDY    76  73  91 S8        30.09F
GREENSBORO     PTCLDY    74  70  87 S9        30.08F
WINSTON-SALEM  PTCLDY    75  71  87 S6        30.10F
RALEIGH-DURHAM PTCLDY    77  68  73 SW7       30.09F
FORT BRAGG     PTCLDY    76  68  76 CALM      30.08F
FAYETTEVILLE   PTCLDY    74  70  87 CALM      30.08F
BURLINGTON     CLEAR     74  70  87 S3        30.07
LAURINBURG     PTCLDY    73  70  90 CALM      30.09F
$$

NCZ011-015-027-028-043-044-047-080-103-270800-
NORTHEASTERN NORTH CAROLINA

CITY           SKY/WX    TMP DP  RH WIND       PRES   REMARKS
ROCKY MT-WILSO CLOUDY    70  69  97 CALM      30.09
GREENVILLE     CLEAR     72  68  88 CALM      30.10F
WASHINGTON     CLOUDY    70  67  90 CALM      30.09F
ELIZABETH CITY MOCLDY    73  69  87 SE3       30.09F
MANTEO         MOCLDY    69  66  91 CALM      30.11S
CAPE HATTERAS  CLEAR     73  68  84 NE5       30.09S
$$

NCZ078-087-090-091-093-098-101-270800-
SOUTHEASTERN NORTH CAROLINA

CITY           SKY/WX    TMP DP  RH WIND       PRES   REMARKS
LUMBERTON      PTCLDY    70  69  97 S3        30.07F
GOLDSBORO      PTCLDY    72  71  97 CALM      30.07F
KINSTON        CLOUDY    73  66  79 CALM      30.10S
KENANSVILLE    CLOUDY    68  68 100 CALM      30.09F
NEW BERN       CLEAR     69  69 100 CALM      30.10F
CHERRY POINT   CLEAR     71  68  90 CALM      30.09F
BEAUFORT       CLEAR     72  71  97 NE6       30.08F
JACKSONVILLE   CLEAR     72  70  93 N3        30.08S
WILMINGTON     CLEAR     72  71  97 N3        30.07F
$$





USA.gov is the U.S. government's official web portal to all federal, state and local government web resources and services.